Content
SEND FEEDBACK

Daily
Averages
Monthly
Summary
Czech Republic

CHEB, CZECH REPUBLIC


Home > Europe > Czech Republic
Elevation: 1545 feet     Latitude: 50 05N     Longitude: 012 24E

WEATHER
 
SELECT A DAY
Number of Records: 79,685;   Date Range: 6/5/97 - 8/10/14
 
SHARE

PRINT THIS DATA

[ ← Previous Day ]
WEATHER ALMANAC - FEBRUARY 3, 2013
[ Next Day → ]
[ °C ]   °F
Weather ElementAverageHighLow
Temperature29 °F30.2 °F (10:30 am)24.8 °F (5:00 am)
Dewpoint24 °F28.4 °F (10:00 pm)21.2 °F (12:30 am)
Humidity81.9 %93 % (3:00 am)69 % (10:30 am)
Barometer29.84 in29.89 in (10:00 am)29.71 in (12:30 am)
Wind Speed9.9 mph16.1 mph (2:30 pm)
Wind Gust26.5 mph (11:00 pm)
Weather ElementAverage
Visibility5.9 mi
Wind DirectionWSW (260 °)

Weather ElementTotal
Precipitation---
Heating Degree Days37.5 (Base 65)
Averaged from 38 records on February 3, 2013
WEATHER CONDITIONS BREAKOUT
WIND DIRECTION BREAKOUT
WEATHER BY HOUR - FEBRUARY 3, 2013
[ °C ]   °F
Local TimeTemperatureDewpointHumidityBarometerVisibilityWind DirectionWind SpeedGust SpeedPrecipitationEventsConditions
12:30 AM26.6 °F21.2 °F80 %29.71 in6.2 miWest (270°)6.9 mphSnowLight Snow Showers
1:00 AM26.6 °F23.0 °F86 %29.71 in6.2 miWest (270°)5.8 mphSnowLight Snow Showers
2:00 AM26.6 °F23.0 °F86 %29.74 in6.2 miWest (270°)5.8 mphMostly Cloudy
3:00 AM26.6 °F24.8 °F93 %29.74 in6.2 miWest (260°)9.2 mphScattered Clouds
4:00 AM26.6 °F23.0 °F86 %29.77 in6.2 miWNW (290°)4.6 mphScattered Clouds
5:00 AM24.8 °F23.0 °F93 %29.80 in6.2 miWest (270°)4.6 mphScattered Clouds
6:00 AM24.8 °F23.0 °F93 %29.80 in6.2 miWest (260°)5.8 mphScattered Clouds
7:00 AM26.6 °F24.8 °F93 %29.83 in6.2 miSW (220°)4.6 mphMostly Cloudy
7:30 AM26.6 °F24.8 °F93 %29.83 in6.2 miSW (230°)3.5 mphMostly Cloudy
8:00 AM28.4 °F24.8 °F86 %29.83 in6.2 miWSW (250°)5.8 mphMostly Cloudy
8:30 AM28.4 °F23.0 °F80 %29.86 in6.2 miWest (280°)10.4 mphMostly Cloudy
9:00 AM28.4 °F23.0 °F80 %29.86 in6.2 miNW (310°)9.2 mphScattered Clouds
9:30 AM28.4 °F23.0 °F80 %29.86 in6.2 miWNW (300°)12.7 mphMostly Cloudy
10:00 AM28.4 °F23.0 °F80 %29.89 in6.2 miWNW (300°)15.0 mphScattered Clouds
10:30 AM30.2 °F21.2 °F69 %29.89 in6.2 miWNW (300°)15.0 mphScattered Clouds
11:00 AM30.2 °F23.0 °F75 %29.89 in6.2 miWNW (290°)13.8 mphScattered Clouds
11:30 AM30.2 °F23.0 °F75 %29.89 in6.2 miWest (260°)11.5 mphMostly Cloudy
12:00 PM30.2 °F24.8 °F80 %29.89 in6.2 miWest (270°)12.7 mphMostly Cloudy
12:30 PM30.2 °F26.6 °F86 %29.89 in6.2 miWest (260°)12.7 mphMostly Cloudy
12:37 PM30.2 °F26.6 °F86 %29.89 in6.2 miWSW (250°)10.4 mphSnowLight Snow Showers
1:00 PM30.2 °F26.6 °F86 %29.89 in6.2 miWSW (250°)9.2 mphMostly Cloudy
1:30 PM30.2 °F24.8 °F80 %29.89 in6.2 miWest (260°)11.5 mphMostly Cloudy
2:00 PM30.2 °F24.8 °F80 %29.89 in6.2 miWest (270°)12.7 mphMostly Cloudy
2:30 PM30.2 °F23.0 °F75 %29.89 in6.2 miWest (280°)16.1 mphMostly Cloudy
3:00 PM30.2 °F23.0 °F75 %29.89 in6.2 miWest (270°)11.5 mphMostly Cloudy
3:30 PM30.2 °F23.0 °F75 %29.89 in6.2 miWest (260°)10.4 mphMostly Cloudy
4:00 PM30.2 °F23.0 °F75 %29.89 in6.2 miWest (260°)11.5 mphMostly Cloudy
4:30 PM30.2 °F23.0 °F75 %29.89 in6.2 miWest (260°)12.7 mphMostly Cloudy
5:00 PM30.2 °F23.0 °F75 %29.86 in6.2 miWSW (250°)10.4 mphMostly Cloudy
5:30 PM30.2 °F23.0 °F75 %29.86 in6.2 miWSW (250°)9.2 mphMostly Cloudy
6:00 PM30.2 °F23.0 °F75 %29.86 in6.2 miWSW (250°)11.5 mphMostly Cloudy
6:30 PM30.2 °F23.0 °F75 %29.86 in6.2 miWSW (240°)9.2 mphMostly Cloudy
7:00 PM30.2 °F23.0 °F75 %29.86 in6.2 miSW (230°)6.9 mphMostly Cloudy
7:30 PM30.2 °F24.8 °F80 %29.83 in6.2 miSW (230°)6.9 mphSnowLight Snow
8:00 PM30.2 °F26.6 °F86 %29.83 in6.2 miSW (220°)10.4 mphSnowLight Snow
9:00 PM30.2 °F26.6 °F86 %29.80 in3.1 miSW (220°)10.4 mph23.0 mphSnowLight Snow
10:00 PM30.2 °F28.4 °F93 %29.77 in2.5 miSW (230°)11.5 mphSnowSnow
11:00 PM28.4 °F26.6 °F93 %29.74 in0.9 miWSW (240°)13.8 mph26.5 mphSnowSnow
Hourly data recorded from LKKV, located miles away from Cheb, Czech Republic







STORIES FROM OUR PARTNERS